Powrót do katalogu

ARIANE 2 DEB

AktywnyGTO
NORAD 27595·DEBRIS·🇫🇷 France

Wystrzelony May 17, 1988 z Guiana Space Centre

Loading…

TLE

Starzejące sięSource: Space-Track

Epoka: Sep 14, 2026, 13:57 UTC

1 27595U 88040E   26257.58131605 -.00000070  00000-0  25348-3 0  9992
2 27595   7.7317 318.0580 7174027 160.9350 253.9948  2.29435952201679

Śledź ARIANE 2 DEB w czasie rzeczywistym z AllMySat

Download on the App Store